Location: Katherine
(14.4670°S, 132.2670°E)
Time: 13:51:43
(UTC+09:30)

ISS - Pass Details

Date: 20 June 2018
Orbit: 402 x 407 km, 51.6° (Epoch: 25 June)

Event Time Altitude Azimuth Distance (km) Brightness Sun altitude
Rises 18:38:36 0° 2° (N) 2,297 0.3 -4.8°
Reaches altitude 10° 18:42:07 10° 42° (NE) 1,447 -1.2 -5.6°
Maximum altitude 18:42:54 11° 56° (ENE) 1,409 -1.4 -5.8°
Drops below altitude 10° 18:43:41 10° 70° (ENE) 1,450 -1.5 -6.0°
Enters shadow 18:45:11 - 93° (E) 1,716 -1.3 -6.3°
